Year,Month,Day,Hour,Minute,Value (Times are PST for insolation in W/m^2)
2019,03,02,00,00,0.00
2019,03,02,00,01,0.00
2019,03,02,00,02,0.00
2019,03,02,00,03,0.00
2019,03,02,00,04,0.00
2019,03,02,00,05,0.00
2019,03,02,00,06,0.00
2019,03,02,00,07,0.00
2019,03,02,00,08,0.00
2019,03,02,00,09,0.00
2019,03,02,00,10,0.00
2019,03,02,00,11,0.00
2019,03,02,00,12,0.00
2019,03,02,00,13,0.00
2019,03,02,00,14,0.00
2019,03,02,00,15,0.00
2019,03,02,00,16,0.00
2019,03,02,00,17,0.00
2019,03,02,00,18,0.00
2019,03,02,00,19,0.00
2019,03,02,00,20,0.00
2019,03,02,00,21,0.00
2019,03,02,00,22,0.00
2019,03,02,00,23,0.00
2019,03,02,00,24,0.00
2019,03,02,00,25,0.00
2019,03,02,00,26,0.00
2019,03,02,00,27,0.00
2019,03,02,00,28,0.00
2019,03,02,00,29,0.00
2019,03,02,00,30,0.00
2019,03,02,00,31,0.00
2019,03,02,00,32,0.00
2019,03,02,00,33,0.00
2019,03,02,00,34,0.00
2019,03,02,00,35,0.00
2019,03,02,00,36,0.00
2019,03,02,00,37,0.00
2019,03,02,00,38,0.00
2019,03,02,00,39,0.00
2019,03,02,00,40,0.00
2019,03,02,00,41,0.00
2019,03,02,00,42,0.00
2019,03,02,00,43,0.00
2019,03,02,00,44,0.00
2019,03,02,00,45,0.00
2019,03,02,00,46,0.00
2019,03,02,00,47,0.00
2019,03,02,00,48,0.00
2019,03,02,00,49,0.00
2019,03,02,00,50,0.00
2019,03,02,00,51,0.00
2019,03,02,00,52,0.00
2019,03,02,00,53,0.00
2019,03,02,00,54,0.00
2019,03,02,00,55,0.00
2019,03,02,00,56,0.00
2019,03,02,00,57,0.00
2019,03,02,00,58,0.00
2019,03,02,00,59,0.00
2019,03,02,01,00,0.00
2019,03,02,01,01,0.00
2019,03,02,01,02,0.00
2019,03,02,01,03,0.00
2019,03,02,01,04,0.00
2019,03,02,01,05,0.00
2019,03,02,01,06,0.00
2019,03,02,01,07,0.00
2019,03,02,01,08,0.00
2019,03,02,01,09,0.00
2019,03,02,01,10,0.00
2019,03,02,01,11,0.00
2019,03,02,01,12,0.00
2019,03,02,01,13,0.00
2019,03,02,01,14,0.00
2019,03,02,01,15,0.00
2019,03,02,01,16,0.00
2019,03,02,01,17,0.00
2019,03,02,01,18,0.00
2019,03,02,01,19,0.00
2019,03,02,01,20,0.00
2019,03,02,01,21,0.00
2019,03,02,01,22,0.00
2019,03,02,01,23,0.00
2019,03,02,01,24,0.00
2019,03,02,01,25,0.00
2019,03,02,01,26,0.00
2019,03,02,01,27,0.00
2019,03,02,01,28,0.00
2019,03,02,01,29,0.00
2019,03,02,01,30,0.00
2019,03,02,01,31,0.00
2019,03,02,01,32,0.00
2019,03,02,01,33,0.00
2019,03,02,01,34,0.00
2019,03,02,01,35,0.00
2019,03,02,01,36,0.00
2019,03,02,01,37,0.00
2019,03,02,01,38,0.00
2019,03,02,01,39,0.00
2019,03,02,01,40,0.00
2019,03,02,01,41,0.00
2019,03,02,01,42,0.00
2019,03,02,01,43,0.00
2019,03,02,01,44,0.00
2019,03,02,01,45,0.00
2019,03,02,01,46,0.00
2019,03,02,01,47,0.00
2019,03,02,01,48,0.00
2019,03,02,01,49,0.00
2019,03,02,01,50,0.00
2019,03,02,01,51,0.00
2019,03,02,01,52,0.00
2019,03,02,01,53,0.00
2019,03,02,01,54,0.00
2019,03,02,01,55,0.00
2019,03,02,01,56,0.00
2019,03,02,01,57,0.00
2019,03,02,01,58,0.00
2019,03,02,01,59,0.00
2019,03,02,02,00,0.00
2019,03,02,02,01,0.00
2019,03,02,02,02,0.00
2019,03,02,02,03,0.00
2019,03,02,02,04,0.00
2019,03,02,02,05,0.00
2019,03,02,02,06,0.00
2019,03,02,02,07,0.00
2019,03,02,02,08,0.00
2019,03,02,02,09,0.00
2019,03,02,02,10,0.00
2019,03,02,02,11,0.00
2019,03,02,02,12,0.00
2019,03,02,02,13,0.00
2019,03,02,02,14,0.00
2019,03,02,02,15,0.00
2019,03,02,02,16,0.00
2019,03,02,02,17,0.00
2019,03,02,02,18,0.00
2019,03,02,02,19,0.00
2019,03,02,02,20,0.00
2019,03,02,02,21,0.00
2019,03,02,02,22,0.00
2019,03,02,02,23,0.00
2019,03,02,02,24,0.00
2019,03,02,02,25,0.00
2019,03,02,02,26,0.00
2019,03,02,02,27,0.00
2019,03,02,02,28,0.00
2019,03,02,02,29,0.00
2019,03,02,02,30,0.00
2019,03,02,02,31,0.00
2019,03,02,02,32,0.00
2019,03,02,02,33,0.00
2019,03,02,02,34,0.00
2019,03,02,02,35,0.00
2019,03,02,02,36,0.00
2019,03,02,02,37,0.00
2019,03,02,02,38,0.00
2019,03,02,02,39,0.00
2019,03,02,02,40,0.00
2019,03,02,02,41,0.00
2019,03,02,02,42,0.00
2019,03,02,02,43,0.00
2019,03,02,02,44,0.00
2019,03,02,02,45,0.00
2019,03,02,02,46,0.00
2019,03,02,02,47,0.00
2019,03,02,02,48,0.00
2019,03,02,02,49,0.00
2019,03,02,02,50,0.00
2019,03,02,02,51,0.00
2019,03,02,02,52,0.00
2019,03,02,02,53,0.00
2019,03,02,02,54,0.00
2019,03,02,02,55,0.00
2019,03,02,02,56,0.00
2019,03,02,02,57,0.00
2019,03,02,02,58,0.00
2019,03,02,02,59,0.00
2019,03,02,03,00,0.00
2019,03,02,03,01,0.00
2019,03,02,03,02,0.00
2019,03,02,03,03,0.00
2019,03,02,03,04,0.00
2019,03,02,03,05,0.00
2019,03,02,03,06,0.00
2019,03,02,03,07,0.00
2019,03,02,03,08,0.00
2019,03,02,03,09,0.00
2019,03,02,03,10,0.00
2019,03,02,03,11,0.00
2019,03,02,03,12,0.00
2019,03,02,03,13,0.00
2019,03,02,03,14,0.00
2019,03,02,03,15,0.00
2019,03,02,03,16,0.00
2019,03,02,03,17,0.00
2019,03,02,03,18,0.00
2019,03,02,03,19,0.00
2019,03,02,03,20,0.00
2019,03,02,03,21,0.00
2019,03,02,03,22,0.00
2019,03,02,03,23,0.00
2019,03,02,03,24,0.00
2019,03,02,03,25,0.00
2019,03,02,03,26,0.00
2019,03,02,03,27,0.00
2019,03,02,03,28,0.00
2019,03,02,03,29,0.00
2019,03,02,03,30,0.00
2019,03,02,03,31,0.00
2019,03,02,03,32,0.00
2019,03,02,03,33,0.00
2019,03,02,03,34,0.00
2019,03,02,03,35,0.00
2019,03,02,03,36,0.00
2019,03,02,03,37,0.00
2019,03,02,03,38,0.00
2019,03,02,03,39,0.00
2019,03,02,03,40,0.00
2019,03,02,03,41,0.00
2019,03,02,03,42,0.00
2019,03,02,03,43,0.00
2019,03,02,03,44,0.00
2019,03,02,03,45,0.00
2019,03,02,03,46,0.00
2019,03,02,03,47,0.00
2019,03,02,03,48,0.00
2019,03,02,03,49,0.00
2019,03,02,03,50,0.00
2019,03,02,03,51,0.00
2019,03,02,03,52,0.00
2019,03,02,03,53,0.00
2019,03,02,03,54,0.00
2019,03,02,03,55,0.00
2019,03,02,03,56,0.00
2019,03,02,03,57,0.00
2019,03,02,03,58,0.00
2019,03,02,03,59,0.00
2019,03,02,04,00,0.00
2019,03,02,04,01,0.00
2019,03,02,04,02,0.00
2019,03,02,04,03,0.00
2019,03,02,04,04,0.00
2019,03,02,04,05,0.00
2019,03,02,04,06,0.00
2019,03,02,04,07,0.00
2019,03,02,04,08,0.00
2019,03,02,04,09,0.00
2019,03,02,04,10,0.00
2019,03,02,04,11,0.00
2019,03,02,04,12,0.00
2019,03,02,04,13,0.00
2019,03,02,04,14,0.00
2019,03,02,04,15,0.00
2019,03,02,04,16,0.00
2019,03,02,04,17,0.00
2019,03,02,04,18,0.00
2019,03,02,04,19,0.00
2019,03,02,04,20,0.00
2019,03,02,04,21,0.00
2019,03,02,04,22,0.00
2019,03,02,04,23,0.00
2019,03,02,04,24,0.00
2019,03,02,04,25,0.00
2019,03,02,04,26,0.00
2019,03,02,04,27,0.00
2019,03,02,04,28,0.00
2019,03,02,04,29,0.00
2019,03,02,04,30,0.00
2019,03,02,04,31,0.00
2019,03,02,04,32,0.00
2019,03,02,04,33,0.00
2019,03,02,04,34,0.00
2019,03,02,04,35,0.00
2019,03,02,04,36,0.00
2019,03,02,04,37,0.00
2019,03,02,04,38,0.00
2019,03,02,04,39,0.00
2019,03,02,04,40,0.00
2019,03,02,04,41,0.00
2019,03,02,04,42,0.00
2019,03,02,04,43,0.00
2019,03,02,04,44,0.00
2019,03,02,04,45,0.00
2019,03,02,04,46,0.00
2019,03,02,04,47,0.00
2019,03,02,04,48,0.00
2019,03,02,04,49,0.00
2019,03,02,04,50,0.00
2019,03,02,04,51,0.00
2019,03,02,04,52,0.00
2019,03,02,04,53,0.00
2019,03,02,04,54,0.00
2019,03,02,04,55,0.00
2019,03,02,04,56,0.00
2019,03,02,04,57,0.00
2019,03,02,04,58,0.00
2019,03,02,04,59,0.00
2019,03,02,05,00,0.00
2019,03,02,05,01,0.00
2019,03,02,05,02,0.00
2019,03,02,05,03,0.00
2019,03,02,05,04,0.00
2019,03,02,05,05,0.00
2019,03,02,05,06,0.00
2019,03,02,05,07,0.00
2019,03,02,05,08,0.00
2019,03,02,05,09,0.00
2019,03,02,05,10,0.00
2019,03,02,05,11,0.00
2019,03,02,05,12,0.00
2019,03,02,05,13,0.00
2019,03,02,05,14,0.00
2019,03,02,05,15,0.00
2019,03,02,05,16,0.00
2019,03,02,05,17,0.00
2019,03,02,05,18,0.00
2019,03,02,05,19,0.00
2019,03,02,05,20,0.00
2019,03,02,05,21,0.00
2019,03,02,05,22,0.00
2019,03,02,05,23,0.00
2019,03,02,05,24,0.00
2019,03,02,05,25,0.00
2019,03,02,05,26,0.00
2019,03,02,05,27,0.00
2019,03,02,05,28,0.00
2019,03,02,05,29,0.00
2019,03,02,05,30,0.00
2019,03,02,05,31,0.00
2019,03,02,05,32,0.00
2019,03,02,05,33,0.00
2019,03,02,05,34,0.00
2019,03,02,05,35,0.00
2019,03,02,05,36,0.00
2019,03,02,05,37,0.00
2019,03,02,05,38,0.00
2019,03,02,05,39,0.00
2019,03,02,05,40,0.00
2019,03,02,05,41,0.00
2019,03,02,05,42,0.00
2019,03,02,05,43,0.00
2019,03,02,05,44,0.00
2019,03,02,05,45,0.00
2019,03,02,05,46,0.00
2019,03,02,05,47,0.00
2019,03,02,05,48,0.00
2019,03,02,05,49,0.00
2019,03,02,05,50,0.00
2019,03,02,05,51,0.00
2019,03,02,05,52,0.00
2019,03,02,05,53,0.00
2019,03,02,05,54,0.00
2019,03,02,05,55,0.00
2019,03,02,05,56,0.00
2019,03,02,05,57,0.00
2019,03,02,05,58,0.00
2019,03,02,05,59,0.00
2019,03,02,06,00,0.00
2019,03,02,06,01,0.00
2019,03,02,06,02,0.00
2019,03,02,06,03,0.00
2019,03,02,06,04,0.00
2019,03,02,06,05,0.00
2019,03,02,06,06,0.00
2019,03,02,06,07,0.00
2019,03,02,06,08,0.00
2019,03,02,06,09,0.00
2019,03,02,06,10,0.00
2019,03,02,06,11,0.00
2019,03,02,06,12,0.00
2019,03,02,06,13,0.00
2019,03,02,06,14,0.00
2019,03,02,06,15,0.00
2019,03,02,06,16,0.00
2019,03,02,06,17,0.00
2019,03,02,06,18,0.00
2019,03,02,06,19,0.00
2019,03,02,06,20,0.00
2019,03,02,06,21,0.00
2019,03,02,06,22,0.00
2019,03,02,06,23,0.00
2019,03,02,06,24,0.00
2019,03,02,06,25,0.00
2019,03,02,06,26,0.00
2019,03,02,06,27,0.00
2019,03,02,06,28,0.00
2019,03,02,06,29,0.00
2019,03,02,06,30,0.00
2019,03,02,06,31,0.00
2019,03,02,06,32,0.00
2019,03,02,06,33,0.00
2019,03,02,06,34,0.00
2019,03,02,06,35,0.00
2019,03,02,06,36,0.00
2019,03,02,06,37,0.00
2019,03,02,06,38,0.00
2019,03,02,06,39,0.00
2019,03,02,06,40,0.00
2019,03,02,06,41,0.00
2019,03,02,06,42,0.00
2019,03,02,06,43,0.00
2019,03,02,06,44,0.00
2019,03,02,06,45,0.00
2019,03,02,06,46,0.00
2019,03,02,06,47,0.00
2019,03,02,06,48,0.00
2019,03,02,06,49,0.00
2019,03,02,06,50,0.00
2019,03,02,06,51,0.00
2019,03,02,06,52,0.00
2019,03,02,06,53,0.00
2019,03,02,06,54,3.90
2019,03,02,06,55,5.00
2019,03,02,06,56,5.00
2019,03,02,06,57,5.00
2019,03,02,06,58,5.00
2019,03,02,06,59,5.00
2019,03,02,07,00,7.00
2019,03,02,07,01,7.00
2019,03,02,07,02,7.00
2019,03,02,07,03,7.00
2019,03,02,07,04,7.50
2019,03,02,07,05,9.00
2019,03,02,07,06,9.00
2019,03,02,07,07,9.00
2019,03,02,07,08,9.70
2019,03,02,07,09,11.00
2019,03,02,07,10,11.00
2019,03,02,07,11,11.00
2019,03,02,07,12,11.00
2019,03,02,07,13,11.60
2019,03,02,07,14,12.00
2019,03,02,07,15,12.00
2019,03,02,07,16,12.00
2019,03,02,07,17,12.00
2019,03,02,07,18,12.00
2019,03,02,07,19,13.70
2019,03,02,07,20,14.00
2019,03,02,07,21,14.00
2019,03,02,07,22,14.00
2019,03,02,07,23,14.20
2019,03,02,07,24,16.00
2019,03,02,07,25,16.00
2019,03,02,07,26,16.00
2019,03,02,07,27,16.00
2019,03,02,07,28,16.00
2019,03,02,07,29,16.60
2019,03,02,07,30,18.00
2019,03,02,07,31,18.00
2019,03,02,07,32,18.00
2019,03,02,07,33,18.00
2019,03,02,07,34,18.00
2019,03,02,07,35,18.60
2019,03,02,07,36,19.00
2019,03,02,07,37,19.00
2019,03,02,07,38,19.00
2019,03,02,07,39,19.00
2019,03,02,07,40,19.00
2019,03,02,07,41,19.00
2019,03,02,07,42,20.70
2019,03,02,07,43,21.00
2019,03,02,07,44,21.00
2019,03,02,07,45,21.00
2019,03,02,07,46,21.00
2019,03,02,07,47,21.00
2019,03,02,07,48,21.30
2019,03,02,07,49,23.00
2019,03,02,07,50,25.60
2019,03,02,07,51,36.90
2019,03,02,07,52,46.00
2019,03,02,07,53,46.30
2019,03,02,07,54,45.70
2019,03,02,07,55,41.90
2019,03,02,07,56,37.10
2019,03,02,07,57,39.50
2019,03,02,07,58,53.90
2019,03,02,07,59,66.40
2019,03,02,08,00,72.40
2019,03,02,08,01,77.70
2019,03,02,08,02,84.20
2019,03,02,08,03,92.80
2019,03,02,08,04,97.50
2019,03,02,08,05,101.40
2019,03,02,08,06,103.80
2019,03,02,08,07,104.90
2019,03,02,08,08,109.10
2019,03,02,08,09,111.10
2019,03,02,08,10,113.10
2019,03,02,08,11,114.30
2019,03,02,08,12,116.40
2019,03,02,08,13,118.50
2019,03,02,08,14,120.90
2019,03,02,08,15,123.70
2019,03,02,08,16,126.00
2019,03,02,08,17,129.60
2019,03,02,08,18,133.30
2019,03,02,08,19,136.90
2019,03,02,08,20,140.60
2019,03,02,08,21,145.20
2019,03,02,08,22,152.10
2019,03,02,08,23,158.20
2019,03,02,08,24,167.50
2019,03,02,08,25,176.90
2019,03,02,08,26,188.60
2019,03,02,08,27,200.00
2019,03,02,08,28,206.40
2019,03,02,08,29,208.80
2019,03,02,08,30,209.00
2019,03,02,08,31,206.10
2019,03,02,08,32,206.30
2019,03,02,08,33,209.00
2019,03,02,08,34,209.60
2019,03,02,08,35,213.20
2019,03,02,08,36,214.80
2019,03,02,08,37,218.60
2019,03,02,08,38,220.30
2019,03,02,08,39,221.70
2019,03,02,08,40,223.80
2019,03,02,08,41,226.60
2019,03,02,08,42,229.50
2019,03,02,08,43,232.20
2019,03,02,08,44,235.20
2019,03,02,08,45,236.60
2019,03,02,08,46,238.30
2019,03,02,08,47,240.40
2019,03,02,08,48,242.50
2019,03,02,08,49,245.20
2019,03,02,08,50,247.60
2019,03,02,08,51,249.70
2019,03,02,08,52,250.90
2019,03,02,08,53,254.80
2019,03,02,08,54,257.00
2019,03,02,08,55,258.20
2019,03,02,08,56,262.30
2019,03,02,08,57,265.30
2019,03,02,08,58,267.30
2019,03,02,08,59,269.50
2019,03,02,09,00,271.80
2019,03,02,09,01,274.60
2019,03,02,09,02,277.10
2019,03,02,09,03,280.60
2019,03,02,09,04,284.90
2019,03,02,09,05,289.60
2019,03,02,09,06,293.60
2019,03,02,09,07,297.30
2019,03,02,09,08,300.70
2019,03,02,09,09,305.80
2019,03,02,09,10,308.60
2019,03,02,09,11,310.50
2019,03,02,09,12,314.00
2019,03,02,09,13,315.80
2019,03,02,09,14,317.70
2019,03,02,09,15,319.80
2019,03,02,09,16,324.50
2019,03,02,09,17,323.20
2019,03,02,09,18,327.10
2019,03,02,09,19,329.30
2019,03,02,09,20,332.20
2019,03,02,09,21,334.40
2019,03,02,09,22,336.40
2019,03,02,09,23,338.80
2019,03,02,09,24,341.00
2019,03,02,09,25,342.30
2019,03,02,09,26,345.00
2019,03,02,09,27,346.30
2019,03,02,09,28,350.00
2019,03,02,09,29,352.00
2019,03,02,09,30,353.70
2019,03,02,09,31,355.00
2019,03,02,09,32,356.30
2019,03,02,09,33,358.40
2019,03,02,09,34,361.20
2019,03,02,09,35,362.00
2019,03,02,09,36,365.20
2019,03,02,09,37,366.80
2019,03,02,09,38,368.80
2019,03,02,09,39,372.60
2019,03,02,09,40,373.00
2019,03,02,09,41,378.00
2019,03,02,09,42,378.20
2019,03,02,09,43,380.20
2019,03,02,09,44,381.40
2019,03,02,09,45,383.40
2019,03,02,09,46,385.50
2019,03,02,09,47,387.30
2019,03,02,09,48,388.70
2019,03,02,09,49,390.80
2019,03,02,09,50,393.70
2019,03,02,09,51,396.00
2019,03,02,09,52,396.50
2019,03,02,09,53,398.10
2019,03,02,09,54,401.50
2019,03,02,09,55,403.00
2019,03,02,09,56,405.20
2019,03,02,09,57,406.00
2019,03,02,09,58,409.00
2019,03,02,09,59,412.40
2019,03,02,10,00,413.00
2019,03,02,10,01,414.80
2019,03,02,10,02,415.00
2019,03,02,10,03,417.80
2019,03,02,10,04,420.20
2019,03,02,10,05,424.00
2019,03,02,10,06,424.10
2019,03,02,10,07,425.00
2019,03,02,10,08,426.10
2019,03,02,10,09,429.80
2019,03,02,10,10,432.00
2019,03,02,10,11,432.70
2019,03,02,10,12,434.70
2019,03,02,10,13,436.00
2019,03,02,10,14,437.40
2019,03,02,10,15,440.10
2019,03,02,10,16,443.40
2019,03,02,10,17,445.60
2019,03,02,10,18,447.30
2019,03,02,10,19,450.70
2019,03,02,10,20,453.40
2019,03,02,10,21,454.70
2019,03,02,10,22,458.20
2019,03,02,10,23,459.00
2019,03,02,10,24,460.90
2019,03,02,10,25,461.90
2019,03,02,10,26,465.80
2019,03,02,10,27,466.30
2019,03,02,10,28,469.20
2019,03,02,10,29,471.20
2019,03,02,10,30,473.40
2019,03,02,10,31,475.20
2019,03,02,10,32,476.00
2019,03,02,10,33,476.60
2019,03,02,10,34,478.70
2019,03,02,10,35,480.80
2019,03,02,10,36,482.40
2019,03,02,10,37,483.90
2019,03,02,10,38,485.00
2019,03,02,10,39,486.20
2019,03,02,10,40,487.00
2019,03,02,10,41,488.30
2019,03,02,10,42,491.00
2019,03,02,10,43,492.00
2019,03,02,10,44,493.60
2019,03,02,10,45,495.70
2019,03,02,10,46,496.80
2019,03,02,10,47,498.80
2019,03,02,10,48,500.90
2019,03,02,10,49,501.00
2019,03,02,10,50,503.00
2019,03,02,10,51,503.10
2019,03,02,10,52,504.30
2019,03,02,10,53,506.40
2019,03,02,10,54,508.00
2019,03,02,10,55,508.50
2019,03,02,10,56,510.60
2019,03,02,10,57,512.00
2019,03,02,10,58,512.40
2019,03,02,10,59,513.00
2019,03,02,11,00,513.90
2019,03,02,11,01,516.00
2019,03,02,11,02,518.20
2019,03,02,11,03,519.60
2019,03,02,11,04,520.00
2019,03,02,11,05,521.40
2019,03,02,11,06,522.00
2019,03,02,11,07,522.00
2019,03,02,11,08,525.20
2019,03,02,11,09,526.00
2019,03,02,11,10,526.00
2019,03,02,11,11,526.90
2019,03,02,11,12,529.00
2019,03,02,11,13,529.00
2019,03,02,11,14,529.00
2019,03,02,11,15,529.60
2019,03,02,11,16,533.00
2019,03,02,11,17,533.20
2019,03,02,11,18,534.50
2019,03,02,11,19,536.60
2019,03,02,11,20,538.00
2019,03,02,11,21,538.00
2019,03,02,11,22,538.80
2019,03,02,11,23,540.00
2019,03,02,11,24,540.00
2019,03,02,11,25,540.60
2019,03,02,11,26,541.00
2019,03,02,11,27,540.40
2019,03,02,11,28,542.10
2019,03,02,11,29,543.00
2019,03,02,11,30,544.60
2019,03,02,11,31,546.60
2019,03,02,11,32,545.30
2019,03,02,11,33,546.90
2019,03,02,11,34,547.00
2019,03,02,11,35,547.90
2019,03,02,11,36,550.10
2019,03,02,11,37,552.20
2019,03,02,11,38,553.70
2019,03,02,11,39,552.00
2019,03,02,11,40,552.60
2019,03,02,11,41,554.70
2019,03,02,11,42,554.00
2019,03,02,11,43,554.40
2019,03,02,11,44,555.80
2019,03,02,11,45,557.00
2019,03,02,11,46,558.00
2019,03,02,11,47,559.00
2019,03,02,11,48,557.90
2019,03,02,11,49,559.50
2019,03,02,11,50,561.00
2019,03,02,11,51,561.00
2019,03,02,11,52,562.60
2019,03,02,11,53,561.50
2019,03,02,11,54,562.60
2019,03,02,11,55,563.80
2019,03,02,11,56,564.00
2019,03,02,11,57,564.00
2019,03,02,11,58,563.10
2019,03,02,11,59,564.00
2019,03,02,12,00,564.00
2019,03,02,12,01,564.30
2019,03,02,12,02,565.70
2019,03,02,12,03,564.40
2019,03,02,12,04,566.00
2019,03,02,12,05,566.60
2019,03,02,12,06,568.70
2019,03,02,12,07,569.30
2019,03,02,12,08,568.80
2019,03,02,12,09,570.00
2019,03,02,12,10,568.90
2019,03,02,12,11,568.00
2019,03,02,12,12,569.20
2019,03,02,12,13,570.00
2019,03,02,12,14,570.00
2019,03,02,12,15,570.00
2019,03,02,12,16,570.00
2019,03,02,12,17,570.00
2019,03,02,12,18,570.00
2019,03,02,12,19,570.00
2019,03,02,12,20,570.00
2019,03,02,12,21,570.00
2019,03,02,12,22,569.80
2019,03,02,12,23,568.20
2019,03,02,12,24,570.00
2019,03,02,12,25,570.00
2019,03,02,12,26,570.20
2019,03,02,12,27,570.70
2019,03,02,12,28,570.00
2019,03,02,12,29,570.00
2019,03,02,12,30,570.00
2019,03,02,12,31,570.00
2019,03,02,12,32,570.00
2019,03,02,12,33,568.90
2019,03,02,12,34,569.10
2019,03,02,12,35,568.80
2019,03,02,12,36,569.30
2019,03,02,12,37,568.50
2019,03,02,12,38,570.20
2019,03,02,12,39,571.00
2019,03,02,12,40,571.00
2019,03,02,12,41,571.00
2019,03,02,12,42,570.10
2019,03,02,12,43,570.00
2019,03,02,12,44,570.00
2019,03,02,12,45,568.00
2019,03,02,12,46,568.00
2019,03,02,12,47,568.00
2019,03,02,12,48,568.00
2019,03,02,12,49,568.00
2019,03,02,12,50,568.00
2019,03,02,12,51,568.00
2019,03,02,12,52,568.00
2019,03,02,12,53,567.20
2019,03,02,12,54,565.20
2019,03,02,12,55,565.90
2019,03,02,12,56,566.90
2019,03,02,12,57,566.00
2019,03,02,12,58,564.80
2019,03,02,12,59,564.00
2019,03,02,13,00,564.00
2019,03,02,13,01,564.00
2019,03,02,13,02,563.20
2019,03,02,13,03,563.00
2019,03,02,13,04,563.00
2019,03,02,13,05,563.00
2019,03,02,13,06,559.20
2019,03,02,13,07,560.90
2019,03,02,13,08,559.00
2019,03,02,13,09,558.60
2019,03,02,13,10,555.30
2019,03,02,13,11,557.00
2019,03,02,13,12,556.60
2019,03,02,13,13,555.00
2019,03,02,13,14,555.00
2019,03,02,13,15,555.00
2019,03,02,13,16,555.00
2019,03,02,13,17,555.00
2019,03,02,13,18,553.60
2019,03,02,13,19,552.00
2019,03,02,13,20,550.90
2019,03,02,13,21,551.30
2019,03,02,13,22,549.40
2019,03,02,13,23,549.40
2019,03,02,13,24,550.00
2019,03,02,13,25,548.40
2019,03,02,13,26,548.00
2019,03,02,13,27,545.40
2019,03,02,13,28,545.00
2019,03,02,13,29,545.00
2019,03,02,13,30,543.00
2019,03,02,13,31,541.00
2019,03,02,13,32,540.90
2019,03,02,13,33,540.00
2019,03,02,13,34,539.70
2019,03,02,13,35,538.40
2019,03,02,13,36,539.50
2019,03,02,13,37,537.40
2019,03,02,13,38,535.30
2019,03,02,13,39,534.00
2019,03,02,13,40,533.60
2019,03,02,13,41,532.10
2019,03,02,13,42,531.00
2019,03,02,13,43,529.90
2019,03,02,13,44,527.80
2019,03,02,13,45,527.00
2019,03,02,13,46,527.00
2019,03,02,13,47,526.30
2019,03,02,13,48,524.50
2019,03,02,13,49,524.00
2019,03,02,13,50,524.00
2019,03,02,13,51,522.20
2019,03,02,13,52,522.00
2019,03,02,13,53,520.10
2019,03,02,13,54,519.80
2019,03,02,13,55,517.00
2019,03,02,13,56,516.70
2019,03,02,13,57,514.60
2019,03,02,13,58,512.70
2019,03,02,13,59,511.50
2019,03,02,14,00,510.60
2019,03,02,14,01,511.30
2019,03,02,14,02,508.40
2019,03,02,14,03,506.00
2019,03,02,14,04,505.10
2019,03,02,14,05,503.50
2019,03,02,14,06,503.00
2019,03,02,14,07,501.80
2019,03,02,14,08,498.50
2019,03,02,14,09,497.00
2019,03,02,14,10,497.00
2019,03,02,14,11,494.80
2019,03,02,14,12,495.60
2019,03,02,14,13,492.60
2019,03,02,14,14,490.20
2019,03,02,14,15,490.00
2019,03,02,14,16,487.00
2019,03,02,14,17,488.90
2019,03,02,14,18,486.80
2019,03,02,14,19,484.80
2019,03,02,14,20,482.80
2019,03,02,14,21,481.50
2019,03,02,14,22,480.00
2019,03,02,14,23,479.40
2019,03,02,14,24,477.30
2019,03,02,14,25,475.60
2019,03,02,14,26,473.30
2019,03,02,14,27,471.00
2019,03,02,14,28,469.50
2019,03,02,14,29,468.00
2019,03,02,14,30,466.80
2019,03,02,14,31,466.00
2019,03,02,14,32,463.30
2019,03,02,14,33,461.20
2019,03,02,14,34,459.40
2019,03,02,14,35,459.00
2019,03,02,14,36,457.30
2019,03,02,14,37,455.20
2019,03,02,14,38,454.00
2019,03,02,14,39,453.90
2019,03,02,14,40,451.80
2019,03,02,14,41,448.00
2019,03,02,14,42,448.00
2019,03,02,14,43,447.50
2019,03,02,14,44,445.00
2019,03,02,14,45,444.50
2019,03,02,14,46,441.60
2019,03,02,14,47,438.60
2019,03,02,14,48,436.30
2019,03,02,14,49,433.10
2019,03,02,14,50,431.50
2019,03,02,14,51,431.00
2019,03,02,14,52,431.00
2019,03,02,14,53,427.20
2019,03,02,14,54,425.00
2019,03,02,14,55,422.80
2019,03,02,14,56,420.50
2019,03,02,14,57,418.50
2019,03,02,14,58,417.20
2019,03,02,14,59,415.30
2019,03,02,15,00,413.20
2019,03,02,15,01,411.10
2019,03,02,15,02,409.90
2019,03,02,15,03,407.80
2019,03,02,15,04,404.00
2019,03,02,15,05,403.50
2019,03,02,15,06,400.70
2019,03,02,15,07,398.60
2019,03,02,15,08,396.70
2019,03,02,15,09,396.00
2019,03,02,15,10,394.50
2019,03,02,15,11,391.30
2019,03,02,15,12,389.20
2019,03,02,15,13,386.60
2019,03,02,15,14,383.90
2019,03,02,15,15,381.80
2019,03,02,15,16,380.40
2019,03,02,15,17,378.70
2019,03,02,15,18,376.60
2019,03,02,15,19,374.60
2019,03,02,15,20,373.20
2019,03,02,15,21,371.40
2019,03,02,15,22,367.40
2019,03,02,15,23,366.10
2019,03,02,15,24,364.10
2019,03,02,15,25,362.00
2019,03,02,15,26,359.80
2019,03,02,15,27,356.80
2019,03,02,15,28,354.50
2019,03,02,15,29,351.60
2019,03,02,15,30,350.00
2019,03,02,15,31,350.00
2019,03,02,15,32,347.80
2019,03,02,15,33,343.00
2019,03,02,15,34,341.50
2019,03,02,15,35,337.70
2019,03,02,15,36,335.10
2019,03,02,15,37,332.90
2019,03,02,15,38,330.80
2019,03,02,15,39,328.30
2019,03,02,15,40,325.70
2019,03,02,15,41,323.60
2019,03,02,15,42,322.30
2019,03,02,15,43,320.40
2019,03,02,15,44,318.40
2019,03,02,15,45,315.50
2019,03,02,15,46,313.20
2019,03,02,15,47,309.20
2019,03,02,15,48,307.90
2019,03,02,15,49,305.90
2019,03,02,15,50,303.70
2019,03,02,15,51,300.70
2019,03,02,15,52,298.20
2019,03,02,15,53,294.80
2019,03,02,15,54,293.40
2019,03,02,15,55,290.70
2019,03,02,15,56,287.70
2019,03,02,15,57,286.20
2019,03,02,15,58,283.30
2019,03,02,15,59,280.00
2019,03,02,16,00,278.50
2019,03,02,16,01,275.80
2019,03,02,16,02,272.80
2019,03,02,16,03,269.90
2019,03,02,16,04,266.10
2019,03,02,16,05,264.30
2019,03,02,16,06,262.50
2019,03,02,16,07,258.80
2019,03,02,16,08,257.20
2019,03,02,16,09,253.40
2019,03,02,16,10,251.10
2019,03,02,16,11,248.00
2019,03,02,16,12,243.90
2019,03,02,16,13,242.60
2019,03,02,16,14,238.50
2019,03,02,16,15,235.60
2019,03,02,16,16,232.90
2019,03,02,16,17,229.70
2019,03,02,16,18,227.80
2019,03,02,16,19,223.30
2019,03,02,16,20,220.00
2019,03,02,16,21,217.30
2019,03,02,16,22,212.60
2019,03,02,16,23,208.90
2019,03,02,16,24,205.20
2019,03,02,16,25,202.80
2019,03,02,16,26,200.10
2019,03,02,16,27,196.20
2019,03,02,16,28,192.80
2019,03,02,16,29,190.40
2019,03,02,16,30,186.80
2019,03,02,16,31,185.10
2019,03,02,16,32,181.40
2019,03,02,16,33,178.20
2019,03,02,16,34,174.10
2019,03,02,16,35,170.80
2019,03,02,16,36,166.80
2019,03,02,16,37,164.60
2019,03,02,16,38,161.20
2019,03,02,16,39,157.40
2019,03,02,16,40,153.90
2019,03,02,16,41,150.10
2019,03,02,16,42,147.30
2019,03,02,16,43,144.50
2019,03,02,16,44,140.70
2019,03,02,16,45,138.10
2019,03,02,16,46,135.40
2019,03,02,16,47,131.70
2019,03,02,16,48,128.10
2019,03,02,16,49,124.50
2019,03,02,16,50,121.60
2019,03,02,16,51,118.80
2019,03,02,16,52,116.50
2019,03,02,16,53,113.60
2019,03,02,16,54,111.20
2019,03,02,16,55,107.20
2019,03,02,16,56,104.20
2019,03,02,16,57,99.90
2019,03,02,16,58,97.80
2019,03,02,16,59,94.80
2019,03,02,17,00,92.50
2019,03,02,17,01,89.60
2019,03,02,17,02,86.90
2019,03,02,17,03,83.70
2019,03,02,17,04,81.70
2019,03,02,17,05,78.40
2019,03,02,17,06,75.90
2019,03,02,17,07,73.10
2019,03,02,17,08,71.10
2019,03,02,17,09,70.00
2019,03,02,17,10,67.10
2019,03,02,17,11,63.30
2019,03,02,17,12,60.70
2019,03,02,17,13,58.60
2019,03,02,17,14,56.50